星链-4450 (STARLINK-4450 )

导读 | 星芒AI

STARLINK-4450 是 SpaceX 星链计划中的一颗低轨通信卫星,属于星链第二代(Gen2)星座的一部分。该卫星旨在为全球用户提供高速、低延迟的互联网服务,尤其关注偏远和网络基础设施薄弱的地区。它采用先进推进系统和激光通信技术,提高网络效率与稳定性。作为星链计划的重要组成,STARLINK-4450 有助于构建更完善的全球宽带网络,推动数字包容与通信技术发展。

基本信息
目录编号:
53491
目录名称:
STARLINK-4450
国际标识:
2022-099AC
轨道中心:
EARTH
卫星名称:
星链-4450
卫星全名:
星链-4450 (STARLINK-4450 )
卫星状态:
在轨 (已飞行1181 天)
发射日期:
2022-08-12 UTC
国别 :
美国 (US)
星等 :
--
轨道信息
数据来源 国际轨道数据
星历时间: 2025-11-05T02:38:46+0800
9小时前
查看轨道信息
半长轴: 6941.068km
偏心率: 0.0003149
轨道倾角: 97.603°
近地点辐角 242.058°
升交点赤经 67.922°
平近点角 118.033°
近地点: 560.747km
远地点: 565.119km
周期: 95.918分钟
每日圈数: 15.012856
详细信息
固有亮度:
5
最大亮度:
2.5
卫星平台:
Starlink v1.5
覆盖范围:
全球
运营商:
太空探索技术公司
运营商所在国:
美国
制造商(研发单位):
太空探索技术公司
制造商所在国:
美国
使用方式:
暂无
卫星简介
星链(Starlink)计划是由太空探索技术公司(SpaceX)提出的一个巨型低轨卫星互联网星座项目,计划在2019年至2024年间在太空搭建由约1.2万颗卫星组成的“星链”网络,其中1584颗将部署在地球上空550千米处的近地轨道,并从2020年开始工作。该卫星仍在工作。
2D轨道图
3D轨道图
轨道高度分析图
轨道倾角分析图
轨道综合分析图
查看轨道综合分析图